Theta_e
317 318 319 318 321 322 328 334 339 341 333 333 340 333 323 326 324 320 323 321 327 331 328 331 333 333 333 339 344 340 335 340 337 331 329 331 338 341 341 342 341 342 343 342 342 341 340 339 338 338 335 334 334 334 335 335 335 335 335 334 333 333 334 336 335 335 335 335 335 336 336 335 335 335 335 335 334 334 334 334 333 332 332 332 332 332 332 332 333 334 334 333 332 331 330 328 326
317 317 318 319 322 322 331 336 342 346 340 335 338 336 326 325 324 322 323 321 329 334 331 334 337 337 337 338 339 342 340 339 336 333 334 338 341 341 342 342 341 342 343 342 342 340 340 339 338 339 334 332 333 333 334 334 334 334 334 333 333 335 335 335 335 335 336 336 336 336 336 335 335 335 335 335 334 333 333 332 331 331 331 332 331 331 332 333 332 332 331 330 330 329 328 327 326
314 316 318 319 323 326 335 337 341 344 338 338 341 339 328 322 324 322 321 325 333 330 330 336 340 337 337 341 340 342 341 338 337 337 339 341 341 341 343 342 342 342 342 341 340 339 338 339 339 339 333 331 333 333 334 334 333 333 334 335 335 336 335 335 335 335 335 336 336 335 335 334 334 334 334 334 333 331 329 327 325 326 328 329 330 330 331 332 331 331 329 329 329 329 328 327 327
312 315 317 321 328 334 344 341 346 346 336 339 337 333 330 325 322 319 319 324 326 321 328 339 341 335 337 344 340 338 340 339 336 335 339 339 340 342 342 342 343 342 342 340 336 336 338 340 340 339 333 333 335 334 335 335 335 334 335 335 335 335 334 335 335 335 335 335 335 334 334 333 332 331 330 329 327 322 319 316 314 319 326 328 329 330 329 329 330 330 329 329 330 330 329 328 327
312 316 316 322 332 336 341 337 341 342 338 341 330 326 333 328 321 319 323 327 327 324 329 338 340 334 336 341 339 340 339 338 335 334 337 339 341 341 342 342 342 342 341 339 336 337 339 339 339 338 334 333 336 335 335 335 335 335 334 334 334 334 333 334 335 334 334 334 334 333 333 331 327 323 322 319 316 313 310 308 307 313 323 327 328 328 328 328 328 328 328 328 328 329 328 328 327
314 318 319 321 326 329 336 336 339 342 343 343 331 330 330 325 322 321 326 330 331 333 334 338 340 337 338 337 336 339 337 337 337 334 337 340 342 341 343 342 341 342 340 338 338 338 338 338 338 337 335 334 335 335 335 334 334 334 333 334 333 332 333 334 334 334 333 333 333 333 332 329 324 322 322 318 314 311 308 307 306 308 314 322 326 326 327 327 325 325 327 327 327 327 327 328 327
315 319 324 328 328 329 340 343 345 346 338 334 332 332 328 326 323 323 328 326 329 333 336 338 336 338 340 336 337 337 336 338 337 336 339 341 342 342 342 341 341 342 340 338 338 339 337 338 338 337 336 335 335 335 335 334 332 332 333 333 332 332 333 334 333 333 332 333 333 333 331 328 324 323 324 321 317 314 310 309 309 308 309 315 318 319 325 325 321 321 323 324 326 326 325 325 326
316 322 328 338 339 335 341 343 345 343 331 329 331 330 329 327 322 328 333 326 329 334 337 337 333 340 339 335 340 338 337 339 338 340 340 341 342 342 342 341 342 341 339 338 339 339 336 338 338 337 336 336 335 335 335 333 331 331 332 331 331 333 333 333 333 333 332 332 333 332 331 329 327 325 324 322 320 316 313 313 312 312 311 312 311 313 321 320 315 315 315 318 320 323 324 324 324
316 322 326 335 340 337 340 341 340 337 331 332 329 326 327 323 324 336 341 334 335 336 336 336 335 339 337 336 341 337 336 337 338 340 338 339 339 339 340 340 342 339 337 338 339 338 337 338 338 337 336 335 335 335 335 334 333 332 332 331 332 333 333 333 333 333 331 329 330 330 330 330 329 327 325 324 322 320 318 318 317 316 314 314 314 313 316 315 313 313 312 313 313 315 319 322 324
317 324 330 335 338 338 340 339 340 338 332 335 327 322 325 321 325 335 339 337 336 335 332 333 335 337 338 339 340 335 334 334 336 337 335 336 336 336 337 337 339 338 337 338 339 338 338 338 337 336 336 336 335 335 335 334 334 334 334 332 331 332 332 332 333 333 329 327 328 328 329 329 329 328 327 326 323 323 322 322 321 320 318 316 316 316 316 316 316 315 316 317 316 314 314 316 318
324 326 331 336 339 340 340 339 343 339 330 334 328 323 328 325 326 331 333 334 333 335 332 332 337 337 338 340 338 331 329 332 333 335 335 335 335 335 335 334 335 335 335 337 338 338 338 338 337 336 335 335 335 335 335 334 334 333 333 332 331 331 330 330 331 330 327 326 326 325 324 324 325 325 326 325 324 323 323 323 323 324 323 322 319 318 317 318 319 320 323 323 323 322 320 318 316
330 328 333 340 341 341 340 340 340 338 331 330 329 329 332 329 332 334 333 333 332 336 332 328 335 336 337 341 334 326 324 328 331 333 334 332 332 332 333 333 333 334 334 336 337 337 337 336 336 336 335 335 334 334 334 334 334 333 332 331 330 328 326 326 328 327 327 327 327 327 327 326 326 325 325 324 324 323 323 323 323 323 325 326 325 322 320 319 320 322 325 325 325 325 325 324 322
332 332 337 340 339 340 339 340 338 338 334 329 329 330 332 331 331 331 329 327 325 332 327 318 328 336 336 338 328 322 321 323 326 328 329 330 330 329 330 330 331 332 332 334 334 335 334 333 335 336 335 334 334 334 334 333 333 333 332 331 328 327 326 327 328 329 330 331 331 332 331 331 331 330 329 328 327 326 326 326 326 325 325 327 327 327 325 323 323 324 326 326 326 326 326 325 325
326 331 338 336 334 339 339 339 339 338 330 327 331 328 327 327 324 324 324 322 317 321 322 312 321 332 332 332 325 319 318 319 321 322 325 327 328 329 328 328 329 329 330 332 333 333 332 333 336 336 334 334 333 333 334 332 331 330 330 329 329 330 332 331 332 332 331 331 330 330 330 331 331 331 331 331 330 330 330 329 329 329 328 329 329 328 328 328 327 327 326 327 327 327 327 327 326
319 330 339 337 335 337 338 337 336 336 330 326 329 323 320 320 318 318 318 319 313 313 318 313 316 325 324 324 322 316 315 316 316 319 324 326 325 328 327 327 327 326 327 329 331 332 332 334 335 334 334 333 332 332 331 331 330 329 329 329 330 332 333 332 331 330 328 327 326 326 327 328 329 329 329 330 330 330 330 330 330 330 329 329 329 329 329 329 329 328 328 327 327 328 328 328 328
320 333 339 338 339 336 336 336 332 335 333 326 325 323 320 317 316 315 314 314 312 310 313 312 312 316 314 315 316 313 313 313 315 322 326 324 322 325 326 326 326 325 325 325 327 330 331 333 334 333 333 332 332 331 331 331 330 330 330 331 332 332 332 332 330 328 326 326 326 325 325 326 326 326 327 327 327 327 327 326 326 327 328 328 328 329 329 329 329 329 329 329 328 328 328 328 328
319 332 338 336 337 335 335 334 329 333 331 326 326 326 322 319 317 316 314 312 313 311 310 310 309 310 309 310 311 310 310 310 316 324 320 317 316 317 319 319 320 321 322 323 325 328 330 331 332 332 332 332 332 331 331 332 331 331 331 333 333 333 332 332 330 328 327 327 327 327 326 326 325 326 326 325 324 324 323 322 322 322 324 326 327 327 328 328 328 328 328 329 329 329 329 329 328
320 329 334 334 334 332 333 332 326 330 327 323 323 323 322 321 319 316 314 312 312 312 310 310 309 308 308 308 308 308 308 308 313 314 310 310 310 310 311 311 312 313 314 318 323 326 328 329 330 331 332 332 331 332 331 332 333 332 332 333 332 332 332 332 330 329 329 329 328 328 326 325 326 326 326 326 324 323 322 322 322 322 322 323 325 325 325 326 327 327 327 327 328 329 330 329 329
325 330 329 332 333 326 325 327 325 325 322 317 317 316 317 318 317 314 312 310 310 311 310 309 308 307 307 306 306 306 305 305 306 306 306 306 307 307 307 308 308 309 309 311 316 322 325 327 329 330 331 331 331 332 331 332 332 331 331 331 331 331 331 331 330 330 331 330 330 329 328 328 328 327 326 326 325 324 324 325 324 323 323 323 323 323 323 324 324 325 325 325 326 327 329 329 329
321 329 333 330 328 323 321 323 322 320 317 315 313 311 311 311 313 314 312 310 308 307 308 307 307 306 306 305 304 303 303 303 303 303 304 303 304 304 305 305 306 306 306 309 314 320 325 327 328 329 330 331 331 330 331 331 330 330 330 330 330 330 330 330 329 329 330 330 330 330 329 330 330 329 328 326 326 325 325 325 325 325 324 324 324 324 323 322 322 323 323 323 323 325 326 327 327
318 326 334 327 323 323 320 318 317 315 314 313 312 310 309 307 308 311 313 314 309 306 305 304 305 304 304 304 302 302 301 301 301 301 301 301 302 302 302 303 304 304 305 310 313 314 319 324 327 328 329 329 330 330 329 329 329 329 329 329 329 328 328 328 328 328 328 328 329 329 329 329 328 328 327 327 327 326 326 326 326 326 325 325 325 324 324 324 323 322 322 322 322 324 325 325 325
317 319 323 323 320 320 316 314 314 313 312 311 311 310 308 305 305 306 308 309 307 304 303 302 302 302 302 302 301 301 300 300 299 299 299 300 300 300 301 301 302 303 304 307 307 308 313 319 324 326 327 328 328 328 328 328 328 327 327 327 327 327 326 326 326 326 326 327 327 327 327 327 327 327 327 327 326 326 327 327 327 327 326 325 325 324 325 325 324 323 323 322 322 322 323 324 324
318 317 317 320 317 316 313 311 312 310 311 311 309 308 306 305 304 303 303 303 303 302 302 301 301 301 301 301 300 299 299 299 298 298 298 298 299 299 299 299 300 301 302 303 303 306 310 314 319 322 324 324 324 326 327 326 325 325 325 325 325 325 324 324 324 324 324 325 325 325 326 326 326 327 327 327 327 327 327 327 327 327 326 326 325 324 324 324 324 324 324 323 323 322 322 322 323
319 316 313 314 312 311 310 309 309 308 309 308 307 307 306 306 304 303 303 301 301 301 301 300 300 300 300 299 299 298 298 298 298 298 297 297 297 297 297 298 298 299 301 302 302 304 307 309 314 318 320 319 317 320 324 322 322 323 322 323 323 322 323 323 321 321 322 322 323 324 324 324 325 325 325 326 326 327 327 327 327 327 326 326 325 325 324 324 324 323 323 323 323 323 323 322 322
316 313 310 309 309 308 308 307 307 306 306 306 305 305 305 304 303 302 303 302 301 301 301 300 300 299 299 299 299 298 298 297 297 297 297 296 296 296 296 296 297 298 299 300 301 303 305 308 312 315 314 313 312 316 321 320 319 321 320 321 319 320 321 318 318 320 319 319 320 321 322 323 323 323 324 324 325 325 325 325 326 326 325 325 325 325 325 324 324 324 324 323 323 323 323 323 323
311 311 309 308 308 307 307 307 307 306 306 305 305 305 304 305 304 302 302 302 301 300 300 300 299 299 298 298 298 298 297 297 297 296 296 296 295 295 295 296 296 296 297 299 301 302 304 307 310 310 308 308 310 314 317 316 317 317 315 314 315 316 315 314 316 317 316 316 316 317 319 320 319 319 320 321 321 322 322 323 323 323 323 323 323 324 323 324 324 324 324 324 324 324 324 323 323
309 309 308 308 308 306 306 306 306 306 305 305 304 304 304 304 305 303 301 301 301 300 299 299 299 298 298 298 298 298 297 297 296 296 295 295 295 295 295 295 295 295 296 298 299 300 302 305 306 306 305 304 306 308 309 310 311 310 308 310 311 310 309 311 312 311 311 312 312 313 315 315 314 313 314 316 317 317 318 318 319 319 319 319 319 319 320 320 320 321 321 322 322 322 322 322 322
308 308 308 307 307 307 308 308 307 307 306 306 305 305 303 303 304 303 301 301 301 301 299 299 298 298 298 297 298 297 297 297 296 296 295 295 294 294 294 294 295 295 295 296 297 299 301 302 303 304 303 302 303 303 303 304 305 304 305 307 306 304 305 307 307 306 306 306 307 309 310 309 308 308 308 310 311 312 312 313 312 313 312 312 313 314 315 316 316 316 317 318 319 320 319 318 319
308 309 309 309 310 310 310 312 311 309 309 308 310 312 305 302 303 302 301 300 300 301 300 299 298 297 298 297 297 297 296 296 295 295 295 294 294 294 294 294 294 294 295 295 296 298 299 300 301 301 301 301 301 300 300 301 301 301 302 302 301 301 302 302 301 300 299 299 301 303 304 303 302 303 302 303 305 306 306 306 306 306 306 306 306 307 309 310 311 312 312 314 314 313 311 310 311
310 311 311 312 313 311 309 312 313 310 309 309 315 317 306 301 302 301 302 301 300 301 300 300 299 297 297 297 296 296 296 296 295 295 294 294 294 293 293 294 294 294 294 295 296 296 297 298 299 299 300 299 298 299 299 299 299 299 299 298 299 299 299 298 296 295 294 295 296 297 298 298 298 298 298 298 300 300 300 300 300 301 301 301 300 301 302 302 303 304 305 307 307 303 302 301 302
312 314 315 315 316 313 307 308 311 310 308 309 313 313 304 302 301 301 303 302 300 300 299 299 300 298 297 296 296 296 296 295 295 295 294 293 293 293 293 293 293 294 294 295 295 295 296 296 297 298 298 298 297 296 296 297 297 296 296 296 296 295 295 294 293 292 292 292 292 293 293 294 294 295 295 295 296 296 296 296 296 297 297 296 296 297 297 298 299 299 301 303 303 301 299 298 298
313 317 319 317 316 313 308 307 309 310 307 307 311 309 303 302 301 300 302 302 300 298 298 298 299 299 298 296 295 295 295 295 295 294 294 293 293 292 292 292 292 293 293 294 294 295 296 296 296 296 297 296 296 295 295 294 294 294 294 294 293 293 292 292 291 291 291 291 291 291 291 291 292 292 292 292 293 293 294 294 294 294 294 294 294 294 295 296 297 298 298 300 302 300 298 298 298
315 318 319 317 316 314 311 306 306 308 306 306 310 307 302 302 301 300 301 302 300 298 297 297 298 299 299 298 296 295 295 294 294 294 294 293 293 292 292 291 291 292 292 292 293 295 295 296 296 296 296 295 295 294 294 293 293 293 292 292 292 291 291 291 290 290 290 290 290 290 290 290 290 290 291 291 291 291 291 292 292 292 292 292 292 292 293 294 295 296 296 298 299 298 297 297 297
318 318 316 315 315 314 312 307 304 304 305 305 305 304 302 301 300 299 299 300 300 298 297 296 296 297 297 298 297 297 296 295 294 294 293 293 292 292 291 291 291 291 291 291 292 293 293 294 294 295 295 295 294 294 293 293 292 292 291 291 291 290 290 290 289 289 289 289 289 289 289 289 289 289 289 289 289 289 289 289 289 290 290 290 290 290 291 291 292 294 295 296 297 296 295 295 296
318 317 314 313 313 311 309 307 304 303 303 304 303 302 301 300 300 299 298 298 298 297 297 296 295 295 296 296 296 296 296 295 294 293 292 292 292 291 291 290 290 290 290 291 291 291 291 292 292 293 293 293 293 293 292 292 292 291 291 291 290 290 289 289 289 288 288 288 288 288 288 289 288 288 288 288 288 288 288 288 288 288 288 288 289 289 289 289 290 291 292 293 294 294 292 293 294
316 314 314 312 311 309 306 305 304 303 303 303 303 302 301 301 300 299 298 297 297 296 296 296 296 296 295 295 294 294 294 294 293 292 291 291 291 291 290 290 290 289 290 290 290 290 291 291 291 292 292 292 292 293 292 292 291 291 291 290 290 289 289 288 288 288 288 287 287 288 288 288 288 288 288 288 288 288 287 287 287 287 287 288 288 288 288 288 289 289 290 290 291 292 290 291 292
312 311 311 310 308 307 306 305 304 304 304 302 302 302 301 301 300 298 298 298 297 296 295 295 295 295 294 294 293 293 293 293 292 291 291 291 290 290 290 289 289 289 289 289 289 289 290 290 290 291 291 292 292 292 292 291 291 290 290 289 289 288 288 288 287 287 287 287 287 287 287 287 287 287 287 287 287 287 287 287 287 287 287 287 287 287 287 287 288 288 289 289 289 290 289 289 291
310 309 309 308 308 306 305 305 305 304 303 302 301 301 300 300 299 298 297 296 296 295 295 295 294 294 294 293 293 293 293 293 292 291 291 290 290 289 289 289 289 289 289 289 289 289 289 289 289 290 290 291 291 291 291 290 290 289 289 288 288 287 287 287 287 287 287 287 287 287 287 287 287 287 286 286 287 286 286 286 286 286 286 286 286 286 287 287 287 287 288 288 288 288 289 288 289
309 309 308 308 307 306 305 304 304 304 303 302 301 300 299 299 298 297 296 295 295 295 295 295 294 294 293 293 294 293 293 293 292 291 291 290 290 289 289 288 288 288 288 288 288 288 288 288 288 289 289 290 290 290 290 290 289 289 288 288 287 287 287 286 286 286 286 286 286 286 286 286 286 286 286 286 286 286 286 286 286 286 286 286 286 286 286 286 286 287 287 287 288 288 288 288 288
310 309 308 308 307 307 306 304 303 303 303 302 301 300 299 298 297 297 296 296 295 295 295 295 295 294 294 293 294 294 293 293 293 292 290 290 290 289 289 288 288 288 288 288 288 288 288 288 288 288 288 288 289 289 289 289 288 288 288 287 287 287 287 286 286 286 286 286 286 286 286 286 286 286 286 286 286 285 285 285 285 285 285 285 285 286 286 286 286 286 286 286 287 287 287 287 287
309 309 308 308 307 306 305 303 303 303 302 302 303 306 304 300 299 298 297 297 296 296 296 296 296 295 295 294 294 294 294 293 293 292 291 290 290 289 289 288 288 287 288 288 288 288 287 287 287 287 287 287 287 287 288 288 288 288 288 287 287 287 287 287 287 286 286 286 286 286 285 285 285 285 285 285 285 285 285 285 285 285 285 285 285 285 285 285 285 286 286 286 286 287 287 287 287
308 308 308 307 306 304 304 305 306 307 307 306 306 312 310 302 300 299 297 297 296 297 297 296 296 296 295 295 295 295 295 293 292 291 291 290 289 289 289 288 288 287 287 287 287 287 287 287 287 287 287 287 287 287 287 287 287 287 287 287 287 286 286 286 286 285 285 285 285 285 285 285 285 285 285 285 285 285 285 285 285 285 285 285 285 285 285 285 285 285 285 285 285 286 287 286 286
309 307 306 305 305 305 306 308 310 311 311 307 305 312 313 305 302 300 297 298 297 297 298 297 297 296 295 296 295 295 295 294 293 291 290 290 290 289 289 288 288 287 287 287 287 287 287 287 286 287 287 287 286 286 286 287 286 286 286 286 285 285 285 285 285 285 285 285 285 285 285 285 285 285 285 285 285 285 285 285 285 285 285 285 285 285 285 285 285 285 285 285 285 285 286 286 286
308 306 304 304 306 307 308 309 309 308 308 307 304 307 312 310 305 302 299 299 299 298 298 298 297 296 296 296 295 296 296 295 295 293 290 290 290 289 289 289 288 287 287 287 287 287 287 286 286 286 286 286 286 286 286 286 286 286 285 285 285 285 285 285 285 285 285 285 285 285 285 285 285 285 285 285 285 285 285 285 285 285 285 285 285 285 285 285 285 285 285 285 285 285 285 285 286
306 305 305 304 305 307 307 308 307 306 309 311 305 304 313 315 306 302 300 299 299 299 299 299 298 298 297 297 297 297 296 294 292 292 291 290 290 289 289 289 288 287 287 286 286 286 286 286 286 286 286 286 286 286 286 286 285 285 285 285 285 285 285 285 285 285 285 285 285 285 285 286 285 285 285 285 285 285 285 285 285 285 285 285 285 285 285 285 285 284 284 284 284 284 285 285 285
305 305 306 305 305 307 307 307 309 312 315 312 303 302 312 317 307 302 302 301 300 300 300 300 300 300 299 298 298 297 297 294 291 290 291 290 290 290 289 288 288 288 287 287 286 286 286 286 286 286 286 286 286 286 285 285 285 285 285 285 285 285 285 285 285 285 285 285 285 285 285 285 285 285 285 285 285 285 285 285 285 285 285 285 285 285 285 285 285 285 285 284 284 284 284 284 284
306 307 307 307 308 310 310 308 310 318 318 308 302 302 307 315 312 303 302 303 302 301 301 301 301 300 299 299 299 297 297 296 291 289 291 291 290 290 290 289 288 288 287 287 286 286 286 286 286 286 286 286 285 286 285 285 285 285 285 285 285 285 285 285 285 285 285 285 285 285 285 285 285 285 285 285 285 285 285 285 285 285 285 285 285 285 285 285 285 285 285 284 284 284 284 284 284
308 309 308 308 311 312 313 314 314 320 318 306 303 302 303 313 316 306 302 304 303 301 301 301 301 300 299 298 299 298 297 297 293 290 290 291 290 290 290 289 289 288 287 287 286 286 286 286 286 286 286 286 285 285 285 285 285 285 285 285 285 285 285 285 285 285 285 285 285 285 285 285 285 285 285 285 285 285 285 285 285 285 285 285 285 285 285 285 285 285 284 284 284 284 284 284 284
308 309 310 312 312 313 316 315 312 314 311 303 302 303 303 309 312 308 304 303 303 302 300 301 300 301 301 299 299 298 296 297 297 291 289 290 291 291 290 290 289 289 288 287 287 286 286 286 286 286 286 286 286 286 285 285 285 285 285 285 285 285 285 284 284 284 284 284 284 284 284 285 285 285 285 285 285 285 285 285 285 285 285 285 285 285 285 285 285 284 284 284 284 284 284 284 284
309 310 312 315 315 316 316 310 306 309 307 302 300 302 306 309 305 305 305 302 303 303 300 300 300 300 301 299 298 297 297 298 298 291 287 289 291 291 291 290 290 289 288 288 287 287 287 287 286 286 286 286 286 286 285 285 285 285 285 285 285 284 284 284 284 284 284 284 284 284 284 284 284 284 284 284 284 284 284 284 285 285 285 285 285 285 285 285 284 284 284 284 284 284 284 284 283
308 307 310 315 317 317 317 313 313 313 308 303 301 303 309 311 304 302 303 301 300 302 300 298 299 299 299 297 296 297 297 297 297 291 287 289 291 291 291 291 290 290 289 288 288 287 287 287 287 286 286 286 286 285 285 285 285 285 285 285 285 285 285 285 284 284 284 284 284 284 284 284 284 284 284 284 284 284 284 285 285 285 285 285 285 284 285 285 284 284 284 284 284 284 284 283 283
304 305 311 311 308 309 309 306 307 308 309 307 304 305 304 304 302 300 300 301 300 301 301 300 301 300 299 299 298 297 297 296 297 294 289 289 291 292 291 291 291 290 290 289 289 288 288 287 287 287 286 286 286 286 286 286 285 285 285 285 285 285 285 285 285 285 285 284 284 284 284 284 284 284 284 284 284 285 285 285 285 285 285 285 285 284 284 284 284 284 284 284 284 284 283 283 283
305 307 309 304 300 304 307 303 298 300 308 306 302 307 306 302 302 300 299 302 302 302 303 302 302 301 300 300 298 297 297 296 296 294 289 289 291 292 291 291 291 291 290 290 290 289 289 288 288 287 287 287 287 287 286 286 286 286 286 286 286 285 285 285 285 285 285 285 285 285 284 284 285 284 284 284 285 285 285 285 285 285 285 285 285 285 284 284 284 284 284 284 284 283 283 283 283
308 310 304 299 299 302 308 311 307 304 308 308 303 307 309 305 304 302 300 303 304 303 304 303 303 302 301 300 298 297 296 295 294 291 289 289 290 291 292 292 291 292 291 291 291 290 290 289 289 289 288 288 288 288 287 287 287 286 286 286 286 286 286 286 286 285 285 285 285 285 285 285 285 285 285 285 285 285 285 285 285 285 285 285 285 285 284 284 284 284 284 284 283 283 283 283 283
305 306 300 301 304 304 306 308 308 306 306 307 305 303 304 305 307 307 305 305 305 303 303 303 303 302 301 300 298 297 296 295 295 293 290 289 290 292 293 292 293 293 292 292 292 291 291 290 290 290 290 290 290 290 290 289 289 288 288 287 287 287 286 286 286 286 285 286 286 286 286 286 286 286 286 286 285 285 285 285 285 285 285 285 285 285 285 284 284 284 284 283 283 283 283 283 283
303 304 301 302 303 303 303 302 304 308 306 303 303 307 309 306 306 309 308 307 304 302 302 302 302 301 301 300 299 298 297 296 296 295 291 290 291 292 293 294 294 295 294 294 293 292 292 292 291 291 291 291 291 291 291 290 290 290 289 289 289 288 288 287 287 286 286 286 286 287 287 287 287 286 286 286 286 286 286 285 285 285 285 285 285 285 285 285 284 284 283 283 283 283 282 282 282
304 306 305 304 300 297 298 298 297 303 308 305 301 305 312 306 301 305 306 303 300 300 301 301 300 300 300 299 299 299 298 296 296 295 292 291 292 293 295 296 296 295 295 295 294 294 294 293 293 293 292 292 292 292 292 291 291 291 290 290 290 290 289 289 288 288 287 287 287 287 287 287 287 287 287 287 286 286 286 286 286 285 285 285 285 285 285 284 284 284 283 283 283 282 282 282 282
299 301 302 302 301 300 304 300 293 295 303 305 299 302 312 305 298 301 302 300 300 300 301 301 299 300 300 299 299 299 298 297 296 294 292 291 292 293 295 296 295 295 295 295 296 295 295 294 294 294 293 293 293 293 293 292 292 291 291 291 290 290 290 289 289 288 288 288 288 287 288 287 287 287 287 287 286 286 286 286 285 285 285 285 285 285 284 284 284 283 283 283 283 282 282 282 282
Wind_Speed
12 11 9 9 9 4 2 3 2 2 2 1 2 1 2 2 1 1 1 2 3 2 3 3 4 4 5 7 9 6 3 3 3 2 2 3 5 8 8 4 14 16 14 14 15 16 13 13 11 9 8 9 10 12 13 13 12 12 11 10 10 9 7 7 7 7 7 8 8 8 9 10 11 11 11 11 11 11 11 10 10 9 9 9 8 8 8 6 6 6 5 5 5 6 6 7 8
11 9 8 7 5 3 1 3 2 3 4 1 3 2 3 2 1 2 2 3 4 3 1 6 8 9 8 10 8 6 6 3 2 2 1 2 3 9 5 7 16 17 16 15 15 16 14 13 10 8 8 10 12 13 13 12 12 12 11 10 9 7 7 7 7 7 7 8 8 9 10 10 11 10 10 10 10 9 9 8 8 7 7 7 7 7 8 7 6 5 5 6 7 7 7 7 7
11 9 8 5 2 3 1 3 2 1 3 1 4 3 2 2 1 2 2 5 7 5 2 4 7 5 5 6 5 4 3 3 2 1 1 2 4 6 5 10 16 17 17 16 16 16 15 13 10 8 9 12 13 13 13 13 13 12 11 10 8 6 7 7 7 7 8 9 9 9 10 10 10 10 9 8 8 7 7 8 7 6 5 5 5 5 5 6 5 5 6 7 8 7 7 7 7
9 8 8 4 1 3 3 3 1 3 2 2 1 3 2 2 1 1 1 2 1 0 1 4 5 3 4 9 4 2 2 3 4 4 2 2 1 5 7 10 15 17 16 15 14 14 14 13 10 8 10 13 13 13 12 11 11 10 10 8 6 6 7 7 7 8 8 10 9 9 10 10 9 8 7 7 7 7 8 8 7 5 5 5 5 5 4 4 4 4 5 5 6 6 6 7 7
6 4 5 3 2 1 3 2 2 3 2 3 2 2 2 3 1 3 3 5 3 3 3 3 4 2 3 6 2 2 3 4 7 8 5 5 2 6 9 11 15 17 16 14 13 15 15 13 10 8 10 12 13 12 10 9 9 9 8 7 5 5 6 7 9 9 10 10 9 10 10 8 8 7 7 8 8 9 9 9 9 6 4 5 5 5 5 5 4 4 4 4 4 4 5 6 6
3 2 4 4 2 1 2 1 2 1 4 4 3 2 2 2 2 4 3 7 6 6 4 3 3 2 3 3 3 3 3 3 7 9 8 6 1 7 11 12 14 16 16 16 15 16 16 13 10 9 10 12 12 11 10 8 8 8 7 6 5 6 7 9 10 10 10 10 8 8 7 6 6 7 9 10 10 11 11 11 11 9 6 4 4 5 4 4 4 5 4 4 4 5 6 6 5
2 2 3 4 2 1 3 2 3 2 2 2 3 1 3 3 4 5 4 5 6 8 5 5 2 4 4 1 2 5 9 8 5 7 6 4 1 7 10 11 14 16 16 16 16 16 15 14 11 10 11 11 11 11 9 8 7 7 7 6 6 6 8 9 10 9 8 8 7 5 5 6 7 8 9 10 10 12 12 12 12 11 9 6 5 4 3 5 5 5 5 5 5 6 8 8 8
3 2 1 3 1 2 3 2 3 2 0 1 1 2 3 4 5 5 5 3 2 5 5 3 1 6 3 0 3 6 14 14 6 6 5 4 3 8 10 11 15 15 17 16 15 16 15 14 12 11 12 11 11 11 9 7 7 7 7 7 6 7 8 9 8 7 7 6 5 4 5 6 7 8 8 9 10 10 11 11 11 11 10 9 7 5 3 7 8 7 7 7 6 8 9 9 9
3 2 1 3 2 2 2 1 3 2 1 2 2 3 4 4 3 5 6 6 3 4 6 5 1 6 2 2 3 1 12 19 11 7 8 8 5 5 7 9 12 12 17 17 15 17 15 14 12 11 12 12 11 10 9 7 7 8 7 7 7 6 6 7 6 5 6 6 5 5 5 6 6 7 8 8 9 9 9 10 10 10 10 10 9 6 4 7 9 8 9 9 9 8 9 9 9
3 2 2 2 3 3 0 1 3 2 1 1 4 6 6 3 5 8 7 7 3 5 6 5 6 7 5 2 3 2 12 22 19 12 13 11 7 7 8 9 8 9 14 16 15 16 15 14 13 12 12 12 11 10 9 8 8 9 9 8 8 6 5 5 5 4 5 6 6 6 5 5 5 6 7 8 9 9 9 9 9 9 9 10 9 8 7 8 8 8 9 10 11 10 9 9 9
2 2 2 3 3 4 3 3 3 1 3 2 4 7 6 4 7 8 6 6 3 4 4 6 7 5 3 4 3 11 21 24 21 15 17 18 16 16 17 20 16 12 12 13 12 14 16 14 13 12 11 10 10 9 8 7 7 8 7 6 6 6 5 4 3 3 4 6 6 7 7 6 6 6 6 7 8 9 9 9 10 10 10 10 10 10 9 10 9 9 10 11 11 11 11 11 10
3 0 3 3 3 4 4 4 3 1 4 4 5 7 6 6 7 8 8 7 5 6 8 8 3 2 2 5 3 16 27 27 23 17 22 27 27 25 25 27 25 21 17 15 12 12 14 12 13 11 10 8 8 7 6 6 5 4 4 3 5 5 5 4 4 4 5 7 7 8 8 7 7 7 6 7 7 8 9 10 10 10 10 10 11 11 11 12 11 11 12 13 13 13 13 13 13
3 2 5 3 3 3 4 4 3 2 4 3 3 7 6 8 9 7 9 11 10 8 8 10 3 2 5 3 4 12 21 25 23 24 30 33 34 33 33 32 29 26 22 18 14 12 12 11 10 10 9 7 6 6 5 4 4 3 2 2 5 6 6 6 5 5 6 7 8 8 9 8 8 8 7 7 7 7 8 10 10 11 11 10 10 10 11 12 12 12 12 13 14 13 13 13 14
2 3 5 3 1 4 4 3 3 4 3 2 3 6 7 8 8 7 9 13 14 6 4 12 5 1 5 2 5 7 13 20 18 22 32 35 35 36 36 35 34 31 28 23 18 12 8 9 11 10 8 7 6 5 4 4 4 4 3 2 4 5 5 6 6 6 7 9 9 10 10 9 9 9 9 8 8 8 8 9 10 11 11 10 10 10 10 11 12 13 13 13 14 13 14 14 14
2 2 4 4 2 3 3 2 5 5 2 3 4 5 11 8 5 10 11 10 11 6 3 16 12 2 5 5 3 7 14 16 13 20 32 34 35 36 35 35 35 35 33 30 26 19 11 11 15 11 7 7 5 4 3 3 3 3 3 2 2 3 4 5 6 7 9 10 10 11 11 11 11 11 11 10 10 10 9 10 10 10 11 10 10 11 11 11 12 12 13 14 15 15 15 15 15
2 3 4 3 3 4 4 4 6 6 4 5 5 4 14 10 8 13 9 7 9 12 11 13 14 7 7 7 5 11 15 12 13 26 34 33 34 36 35 35 34 35 35 34 32 28 23 22 19 12 8 8 5 4 4 3 2 1 1 1 1 2 3 4 6 7 8 10 11 12 12 12 12 12 11 11 11 11 12 13 13 12 12 12 12 12 12 13 13 14 14 15 15 16 16 17 17
2 3 4 3 3 5 5 4 5 7 6 4 3 3 12 10 9 12 10 15 13 15 16 11 13 13 11 9 10 12 12 14 25 35 33 31 32 33 34 33 33 33 34 34 33 31 28 26 21 15 11 9 5 3 3 2 3 4 2 2 4 5 3 3 5 6 7 8 10 11 12 13 12 12 11 12 12 11 13 14 15 14 13 13 14 15 15 15 15 15 16 16 16 16 17 18 19
3 2 4 4 4 4 4 5 6 8 7 4 6 5 11 11 6 5 8 16 13 14 15 12 14 16 15 15 14 12 15 27 35 36 32 29 28 28 28 29 31 30 30 32 32 31 30 29 25 21 16 14 11 6 4 3 4 7 5 3 5 8 6 4 5 4 5 6 7 9 11 12 12 11 11 12 12 11 12 14 15 15 14 14 15 16 16 17 16 16 18 18 17 17 18 19 20
3 3 4 4 5 2 1 4 5 8 11 9 10 8 10 9 4 4 8 11 13 15 12 12 14 15 16 18 19 15 21 35 36 33 31 27 25 23 22 25 28 27 27 29 31 31 31 30 28 25 21 20 20 17 13 9 9 14 17 14 11 12 10 8 7 5 4 3 4 5 7 9 9 11 11 12 12 12 12 13 15 15 15 14 14 15 17 17 17 17 18 19 19 18 20 20 19
2 3 4 4 5 3 6 4 8 10 15 17 12 11 15 11 5 3 9 13 16 15 10 12 12 13 13 15 18 15 21 34 33 31 28 24 23 21 20 22 23 24 24 26 29 29 29 28 27 27 24 22 24 24 22 18 18 21 21 19 16 15 13 11 10 8 6 5 4 5 7 9 9 10 10 10 11 12 12 13 14 15 15 16 16 16 16 16 17 17 18 19 19 18 19 20 20
2 3 4 4 4 5 8 7 13 10 14 17 12 15 18 12 11 7 9 13 12 11 10 11 9 10 11 12 14 15 23 30 27 28 25 24 23 20 20 18 19 22 24 28 30 29 28 28 26 25 24 23 24 25 24 22 21 22 21 20 18 18 16 13 13 11 9 8 7 7 8 10 11 11 11 10 11 12 13 13 13 14 15 17 19 19 19 19 18 17 18 18 18 19 18 18 19
3 2 2 4 6 8 6 8 13 10 12 15 13 16 12 9 15 14 15 14 7 7 10 11 9 9 10 10 12 16 24 25 23 25 24 24 23 21 20 18 20 24 27 29 30 30 29 28 26 24 24 25 25 24 24 23 23 23 22 20 19 19 18 17 16 14 13 11 10 10 10 11 13 13 13 12 12 12 13 13 12 13 15 17 19 20 20 20 20 20 20 19 19 19 19 19 19
4 3 4 4 9 11 5 7 10 9 14 14 12 12 10 15 15 13 18 16 9 9 10 10 11 11 11 12 13 16 20 21 23 23 22 23 23 22 21 21 23 24 27 28 27 29 29 28 27 25 25 26 26 24 22 24 24 24 23 20 20 21 19 19 19 18 16 15 14 14 13 14 15 15 16 16 15 14 14 14 13 13 15 17 19 21 21 20 21 21 22 22 21 20 20 21 21
7 4 6 7 12 14 8 9 11 14 19 15 14 16 13 18 14 10 17 16 11 12 11 11 13 14 13 13 15 15 18 21 22 21 21 21 21 22 23 24 24 25 28 30 28 28 28 28 28 26 26 26 26 25 23 24 24 23 23 21 22 22 20 21 21 19 19 18 17 17 17 17 17 17 18 18 18 18 16 16 14 14 15 17 19 20 22 21 22 22 23 23 23 23 23 24 24
6 6 7 9 13 15 13 14 17 19 18 15 21 20 14 16 16 14 15 13 12 12 12 11 11 13 14 14 14 15 19 22 22 21 22 21 22 24 26 25 26 28 29 29 29 29 29 28 27 27 27 27 26 25 24 24 23 23 22 22 22 22 21 22 21 20 20 20 20 19 18 18 17 16 16 16 17 18 18 18 16 15 16 17 18 19 21 21 22 23 23 24 24 25 26 26 27
4 9 11 13 14 13 14 14 16 17 10 15 24 17 10 9 11 15 14 11 11 10 12 11 10 13 13 10 12 18 20 21 21 20 20 22 24 26 26 25 26 27 26 26 28 29 29 28 28 28 27 27 26 26 26 24 24 23 24 24 23 22 22 21 20 20 20 20 20 20 18 16 16 17 16 16 15 15 17 17 17 16 16 17 19 19 19 20 20 21 22 23 24 25 26 26 26
10 15 16 17 15 10 12 14 15 15 9 16 26 17 13 9 7 10 9 10 9 9 10 9 10 13 12 10 13 19 19 19 20 19 21 23 24 25 24 24 24 24 24 25 26 26 27 28 27 28 27 26 26 27 27 26 25 24 25 24 24 24 23 22 21 21 22 22 21 20 18 17 18 19 19 18 17 17 18 18 18 18 18 19 19 19 18 18 18 18 19 19 20 21 21 21 22
16 20 19 16 16 11 9 10 8 9 8 13 23 20 16 13 9 8 5 8 8 8 9 8 10 11 10 12 13 15 16 18 20 20 22 22 21 22 22 23 22 22 24 23 22 23 26 27 27 27 26 25 26 27 27 26 26 25 24 23 24 24 24 23 23 23 23 23 22 20 20 20 21 21 21 20 20 20 20 21 22 22 22 22 21 20 19 18 18 18 18 18 17 17 18 19 19
16 20 20 12 14 11 7 4 3 4 9 4 10 15 15 13 9 7 5 6 5 7 8 8 10 10 9 10 9 12 16 18 20 22 21 20 20 21 21 22 20 20 20 20 21 23 24 25 25 25 25 25 26 26 26 26 25 25 24 23 23 23 23 23 23 24 24 24 23 22 22 22 23 22 23 23 22 22 22 23 24 24 24 24 23 22 21 20 20 21 21 20 19 20 22 22 22
13 16 15 9 10 8 8 5 4 4 2 5 3 6 7 9 9 7 5 4 5 6 8 7 7 8 8 7 7 10 16 18 19 21 21 21 21 20 21 21 20 20 19 20 22 22 23 23 24 24 25 25 25 25 25 25 25 24 25 25 24 24 24 25 26 26 26 26 25 24 24 24 24 23 24 24 24 24 25 26 26 25 24 24 24 25 24 24 24 25 25 23 23 25 26 27 26
10 12 9 6 8 4 5 6 4 5 4 4 8 7 2 5 8 7 5 4 4 6 7 7 6 7 6 6 7 8 12 16 17 19 20 21 20 20 20 20 21 22 21 22 22 22 22 22 23 24 24 25 25 25 24 25 24 25 25 26 26 26 27 28 29 29 28 29 28 29 28 27 26 26 26 26 26 26 27 28 28 27 26 26 27 28 28 27 27 27 28 27 26 27 29 29 29
6 8 6 5 6 3 3 8 6 3 3 6 11 8 3 5 6 6 4 4 4 6 7 6 6 7 7 7 8 7 9 14 17 18 19 19 19 19 20 20 21 22 22 23 23 23 23 23 23 24 24 24 24 24 24 24 25 25 26 26 27 28 29 29 30 30 30 30 30 31 31 30 30 29 29 29 29 29 29 29 28 27 27 28 28 29 30 29 29 29 29 28 26 27 29 30 31
2 4 7 6 8 6 1 8 9 2 2 8 9 9 5 5 6 5 4 4 3 6 7 7 6 7 7 7 7 7 7 10 15 19 19 18 18 18 18 19 19 20 21 21 22 23 23 23 23 23 23 23 23 23 23 24 25 25 26 27 27 28 29 29 29 29 30 30 31 31 31 31 31 31 31 31 32 31 31 30 29 28 29 29 30 30 31 31 30 29 29 28 25 27 29 32 33
3 4 6 5 9 6 3 5 8 7 10 10 13 13 8 7 7 6 5 4 4 5 6 7 6 6 7 6 6 6 6 7 10 16 18 18 17 17 17 18 18 19 20 21 21 22 22 22 22 22 22 22 22 22 22 22 23 24 26 26 27 28 29 29 29 29 30 30 30 30 31 31 31 31 32 32 33 32 32 32 31 31 31 31 32 33 33 33 32 29 28 28 26 27 31 32 33
9 9 8 7 8 6 6 5 4 13 17 13 14 14 10 8 7 6 5 4 5 5 6 6 6 7 7 6 6 5 6 6 9 13 16 16 16 16 16 17 18 19 19 20 20 21 21 22 22 21 21 21 21 21 21 21 22 23 24 25 27 28 28 28 29 29 30 30 30 30 31 31 32 32 32 32 33 33 33 34 33 33 33 33 34 35 35 35 34 32 29 29 27 27 31 32 32
10 10 10 10 9 7 8 9 7 16 20 12 11 13 10 8 6 4 4 4 5 5 6 5 5 6 6 6 5 4 5 6 8 13 15 16 15 15 15 16 16 18 18 20 21 22 22 22 22 22 22 20 20 20 20 20 21 22 23 24 25 26 26 26 28 28 29 30 30 30 31 31 31 32 32 33 33 33 34 34 34 34 34 35 35 35 35 35 34 33 30 30 29 27 31 35 34
14 12 11 11 12 8 7 9 5 8 14 9 8 11 10 7 5 4 4 5 6 5 5 4 4 4 4 4 4 4 3 4 8 11 13 14 14 14 15 15 16 18 19 21 22 23 23 23 23 23 22 20 20 21 20 21 21 21 22 23 23 23 23 25 26 27 27 28 29 30 30 30 31 31 32 32 33 33 33 33 34 34 34 34 34 33 32 32 33 32 30 30 30 28 31 35 35
15 12 12 11 10 8 6 6 2 3 11 7 6 11 9 7 5 4 5 5 5 4 4 4 4 3 3 2 2 3 2 4 8 10 11 12 13 14 15 16 18 19 20 21 22 22 22 22 23 23 21 21 21 20 20 20 20 19 20 20 20 22 23 24 25 25 26 26 28 28 29 29 29 30 30 31 31 31 31 32 32 32 32 32 32 32 32 32 33 33 32 30 29 27 27 32 36
13 10 11 9 8 9 7 6 5 6 10 7 5 9 7 5 5 4 4 4 3 3 3 3 3 2 2 2 2 2 2 3 5 8 10 12 13 14 15 17 18 18 19 19 20 20 21 22 22 21 21 21 20 19 18 18 18 18 19 19 20 21 22 22 22 22 23 24 25 26 26 27 27 28 28 28 29 29 29 29 29 30 30 30 30 31 31 32 32 32 32 30 28 27 26 29 34
9 9 10 8 5 6 5 5 7 9 9 9 9 8 5 3 4 3 3 2 2 3 3 2 2 2 2 2 3 2 3 4 4 6 9 11 12 13 15 15 16 16 17 18 19 19 20 20 20 20 20 20 19 18 17 16 15 16 17 17 18 19 19 20 20 21 22 22 23 24 24 24 25 25 25 26 26 26 27 26 27 27 27 28 28 29 29 30 29 29 29 29 27 26 25 27 29
5 7 10 10 7 8 9 7 11 14 10 7 7 6 3 1 2 1 1 1 0 2 2 2 2 2 3 4 3 3 3 3 3 4 7 9 10 11 12 13 14 15 16 16 16 16 17 17 17 18 18 18 18 17 16 15 15 15 15 15 16 17 17 18 19 20 20 21 21 21 21 21 22 22 22 23 23 23 24 24 24 24 25 25 25 26 26 26 26 26 26 27 26 24 23 24 25
5 3 6 14 14 15 16 14 11 9 5 1 1 3 1 1 1 2 1 1 2 1 2 3 3 3 4 4 4 3 3 3 3 4 5 7 8 9 10 11 12 13 13 13 12 12 13 14 14 15 15 16 16 16 15 15 15 15 15 16 17 17 18 18 17 17 17 17 17 17 17 18 18 19 19 20 20 20 21 21 21 22 22 22 22 22 22 23 23 24 23 23 23 22 21 21 23
5 3 5 17 19 18 16 12 8 5 4 2 1 1 1 1 3 4 3 3 4 1 2 4 4 3 3 3 4 4 4 4 3 4 4 5 6 7 8 9 10 10 10 9 9 9 10 11 12 12 13 13 13 13 13 13 15 16 16 16 16 16 15 14 13 13 13 13 13 14 14 15 15 16 16 17 17 18 18 19 19 19 19 20 20 20 21 21 21 21 21 21 21 20 20 20 21
4 2 8 15 16 15 11 8 6 5 5 4 3 3 1 1 2 2 3 2 4 3 4 5 3 4 4 4 4 4 4 4 3 4 4 3 3 5 6 6 7 7 7 6 7 8 8 9 9 10 10 11 11 11 11 12 13 13 13 13 13 13 12 11 10 10 11 11 11 12 12 13 13 14 14 15 16 16 17 17 17 18 18 18 19 19 19 19 19 20 20 19 19 19 19 18 19
6 8 10 7 8 10 7 7 7 5 5 3 4 5 1 2 2 1 2 2 6 6 6 6 5 6 6 5 6 5 5 5 5 5 4 3 2 3 4 4 4 4 4 4 5 6 6 6 6 7 7 8 9 9 9 10 10 10 10 10 10 10 9 9 9 9 9 10 10 11 11 12 12 12 13 14 14 15 16 16 17 17 17 18 18 19 19 19 20 20 20 20 20 19 18 17 18
8 10 9 5 7 8 6 5 4 4 5 2 3 4 2 2 2 1 1 4 8 7 6 7 6 7 7 6 6 6 5 5 6 7 6 4 3 3 3 4 4 3 3 3 3 3 3 4 4 4 5 6 6 6 7 7 7 7 8 8 8 8 8 9 9 9 10 11 11 11 12 12 12 12 12 13 13 14 15 16 17 17 18 18 18 19 20 20 21 21 21 21 21 21 20 18 18
11 10 8 6 6 5 4 3 2 5 2 1 2 2 1 1 3 4 5 4 6 6 5 5 6 7 7 6 6 6 5 5 5 7 7 6 5 5 5 5 5 5 4 4 3 3 2 2 2 2 2 3 3 3 4 4 5 5 6 6 7 8 9 10 11 12 12 13 14 14 14 14 14 14 14 14 14 15 16 16 17 18 18 18 19 20 20 21 22 22 22 22 22 22 22 21 20
8 5 5 5 4 3 3 4 3 4 2 4 1 3 0 1 4 5 7 6 4 6 7 7 9 8 7 6 6 6 5 4 4 6 8 8 8 8 8 8 7 6 6 6 5 5 4 4 4 3 2 2 3 3 3 3 4 5 6 6 7 9 10 12 13 14 15 16 17 18 18 17 17 17 17 17 17 17 18 18 19 19 19 20 20 21 21 22 23 24 24 24 24 24 23 22 22
5 3 3 4 3 2 3 2 2 1 3 3 3 4 1 3 5 4 7 9 6 6 8 8 9 9 8 7 7 5 4 4 4 5 8 10 11 11 10 9 9 8 8 8 8 8 7 7 7 7 6 5 6 6 6 6 6 7 8 9 9 11 12 13 15 16 17 18 19 20 20 21 21 21 20 20 20 20 20 21 21 22 22 22 22 23 23 24 24 26 26 25 26 26 26 24 24
2 2 3 3 3 3 1 0 2 1 3 2 4 3 1 3 4 3 6 8 7 6 6 6 7 8 8 7 5 5 5 5 5 5 8 11 13 13 12 11 11 10 10 10 10 11 11 11 10 11 10 9 9 9 9 10 10 10 11 12 12 13 14 15 16 18 19 20 20 21 23 23 24 25 25 25 24 23 23 24 24 25 25 25 25 25 25 26 26 27 27 27 28 27 27 26 26
1 1 4 3 3 4 3 2 2 2 2 2 4 2 1 2 2 4 6 5 4 3 3 3 3 4 4 3 4 4 5 6 5 6 9 13 15 15 14 13 13 12 12 12 12 13 14 14 13 14 14 13 12 12 13 13 13 13 14 15 15 16 17 18 19 20 21 22 22 23 24 25 26 27 27 27 27 26 27 27 28 28 28 28 27 27 28 28 29 29 29 29 29 29 28 28 28
1 0 3 2 1 4 4 3 4 3 0 1 1 2 3 3 4 4 3 3 2 1 2 2 4 5 3 3 5 5 6 6 5 5 9 15 18 17 17 16 15 15 14 14 14 14 15 15 15 16 17 16 16 16 16 16 17 17 18 18 18 19 20 21 22 22 22 23 24 25 26 26 27 28 29 29 29 29 29 30 30 31 30 30 29 29 29 30 30 31 32 31 31 31 30 30 29
1 3 2 1 2 6 6 2 1 3 2 0 1 3 4 3 3 4 4 2 3 2 2 4 5 5 4 5 6 6 6 7 6 7 10 15 18 19 19 19 18 17 16 16 16 15 15 16 17 18 19 19 19 19 19 19 20 21 22 22 22 23 23 24 25 25 25 25 26 27 28 28 29 30 31 31 31 31 31 32 32 33 32 32 31 31 31 31 32 33 33 33 33 33 32 32 31
3 3 3 2 3 5 5 2 3 4 1 2 2 2 4 3 2 4 3 3 6 5 5 5 6 6 6 7 8 7 8 7 7 8 12 16 18 20 21 21 20 19 18 18 17 16 17 17 18 19 20 20 20 20 21 22 23 24 25 25 25 26 26 27 28 28 28 28 29 30 30 31 32 32 32 33 33 34 34 34 34 34 34 33 33 33 33 33 33 34 34 34 34 33 32 33 33
4 4 3 2 3 2 2 3 2 2 1 3 4 3 3 3 3 3 3 7 9 8 6 6 8 8 8 9 8 8 8 6 7 7 11 16 20 23 24 22 21 20 20 20 19 18 19 19 19 21 21 21 21 21 22 23 24 24 25 26 27 28 29 29 30 30 30 30 31 31 32 33 33 33 33 34 35 35 36 36 36 36 36 35 35 35 35 35 36 35 35 35 34 33 32 34 35
5 4 3 2 3 2 2 3 2 2 2 1 3 3 3 5 4 4 7 9 9 8 7 8 10 10 9 8 8 8 7 7 8 7 10 16 21 24 25 24 23 22 21 21 21 21 22 21 22 23 24 24 24 24 25 25 25 25 25 26 27 28 29 30 31 32 32 32 33 33 33 34 34 34 35 35 36 36 37 37 37 37 37 37 36 36 36 37 37 36 36 35 36 34 34 35 36
3 4 4 2 2 1 2 3 2 3 3 2 1 3 4 5 3 4 6 6 5 6 7 8 9 9 8 8 7 7 7 8 8 8 11 17 21 24 27 27 26 25 24 24 24 24 25 24 25 25 26 26 27 28 28 28 27 27 27 28 28 29 30 31 33 33 34 34 34 34 35 35 36 36 36 36 37 37 37 38 38 38 37 37 37 37 38 37 37 37 37 36 36 35 35 36 36
1 1 1 0 1 2 4 3 2 2 3 3 2 1 6 5 2 4 5 5 5 6 7 7 8 8 8 8 8 8 8 8 8 9 13 17 21 24 26 26 26 27 27 27 27 27 27 27 28 27 27 28 29 30 30 30 30 30 30 30 30 30 31 33 34 35 36 36 36 36 36 37 37 37 37 37 38 38 38 38 38 38 38 38 38 38 38 37 37 37 38 37 37 35 36 36 36
Wind_Direction
322 328 341 340 334 350 24 63 73 327 74 82 296 244 269 244 292 265 100 24 75 9 324 44 53 66 94 111 121 129 91 84 146 124 144 282 354 146 163 145 157 154 145 142 135 132 124 125 131 132 122 124 129 127 122 118 119 119 122 127 121 114 109 97 91 93 90 91 90 90 91 90 84 78 75 71 71 69 65 56 48 45 44 45 42 42 41 40 38 44 42 41 37 26 15 5 6
326 328 344 344 344 28 230 74 92 328 45 14 286 185 260 311 339 219 158 72 115 159 146 72 72 67 84 117 118 92 55 33 158 173 253 348 84 144 154 150 156 152 147 141 136 136 133 137 139 134 116 117 121 120 120 117 120 119 120 117 110 106 98 92 91 94 89 92 94 94 93 87 79 76 73 67 65 59 50 37 30 28 29 34 32 35 44 51 41 26 21 18 13 6 3 3 7
331 330 346 357 10 42 59 45 91 41 69 237 276 244 299 51 190 229 174 125 134 154 140 67 74 56 58 78 44 53 41 342 22 3 342 53 111 148 157 157 160 156 149 144 144 144 140 141 139 129 113 113 110 111 114 113 116 116 115 107 104 100 85 86 93 95 93 97 97 97 93 81 73 71 67 61 52 33 17 6 1 359 1 11 15 29 44 52 44 28 23 16 8 356 351 353 354
334 337 344 13 69 33 61 41 137 118 115 218 269 281 324 143 185 350 337 94 131 314 73 44 53 351 41 62 27 48 26 317 334 334 328 0 207 181 169 163 163 157 150 149 149 145 141 139 135 118 108 111 108 108 110 111 113 113 111 103 106 99 83 86 94 97 96 98 96 93 88 77 68 60 53 42 26 10 6 2 1 1 7 19 22 30 27 26 33 29 23 12 4 356 347 338 339
333 346 356 44 100 52 96 69 112 109 186 190 113 308 294 204 63 28 357 18 354 18 77 82 83 292 45 66 38 50 354 290 311 335 343 333 270 193 176 169 165 155 150 150 145 145 143 139 137 120 110 113 113 110 107 109 109 107 105 103 106 90 82 90 96 99 99 98 93 86 81 75 62 47 37 28 24 22 22 20 18 21 31 37 31 23 18 19 17 3 356 351 338 324 328 329 329
344 47 41 57 94 109 118 116 161 189 224 168 113 307 317 222 120 94 49 36 32 36 62 69 98 146 75 33 9 63 18 321 312 333 347 354 295 182 175 175 167 158 154 151 148 146 144 143 143 128 116 116 116 110 106 107 108 107 104 104 101 86 87 95 96 98 99 96 90 86 79 63 48 42 34 28 32 32 31 29 26 30 34 34 22 19 23 12 3 351 337 326 314 294 288 296 303
34 108 44 67 51 41 115 151 198 217 247 141 120 267 333 270 178 112 30 34 40 23 41 47 75 98 69 340 13 39 27 14 333 341 352 15 132 175 172 172 166 166 161 152 149 146 144 144 142 130 121 118 117 111 105 103 109 107 102 97 90 92 95 95 95 95 93 89 86 77 55 35 36 38 31 27 32 33 32 29 29 32 32 27 10 15 18 340 336 337 327 307 297 293 284 279 279
52 117 34 97 69 20 110 148 221 199 286 268 215 270 319 270 196 100 26 45 57 8 19 357 54 70 48 344 67 21 22 25 30 37 48 80 126 171 169 163 166 170 157 150 149 148 146 140 136 131 124 118 116 114 112 106 109 105 97 90 86 93 94 93 91 88 80 74 74 51 30 25 27 25 22 23 27 31 31 28 29 30 30 31 20 20 358 335 337 331 328 319 298 286 286 286 281
51 65 122 104 118 62 89 143 258 218 261 311 351 322 319 297 161 98 63 63 54 51 15 310 75 84 132 49 71 8 21 27 40 56 40 54 75 148 156 151 168 171 150 150 155 152 144 133 129 129 126 123 123 125 127 117 107 99 91 88 91 96 94 94 86 80 71 61 55 36 21 16 14 9 8 8 12 18 20 20 21 23 23 24 23 23 358 343 348 339 333 333 324 304 291 288 286
50 32 146 100 121 131 136 207 261 235 272 308 16 351 337 340 98 83 82 86 60 80 28 350 74 110 162 62 69 25 21 29 37 46 33 33 41 52 65 78 122 147 143 151 160 150 136 130 126 127 130 129 133 135 135 122 105 96 91 90 91 94 96 98 89 78 62 51 39 27 12 359 352 348 350 351 354 357 2 5 5 7 7 6 5 4 356 348 350 351 346 341 342 336 322 307 295
79 352 123 108 128 163 191 198 246 264 329 344 16 0 0 2 91 75 69 90 45 69 21 7 66 114 138 67 67 12 22 31 23 34 46 47 50 53 52 48 58 80 108 131 151 143 129 127 118 121 127 129 137 136 138 134 121 110 103 96 82 75 77 81 75 44 29 27 20 20 16 10 360 349 344 339 343 346 350 352 351 352 351 351 347 343 345 343 342 350 350 344 344 343 341 336 325
126 326 92 124 170 182 184 168 201 210 352 14 11 347 3 18 69 74 65 65 30 54 21 353 59 127 50 62 42 10 20 22 12 34 56 56 57 58 55 51 57 66 77 95 121 130 123 118 110 117 119 117 129 130 139 140 138 138 122 87 57 46 52 57 44 25 17 20 21 23 21 20 16 9 2 353 349 347 345 343 342 342 339 337 334 330 330 331 330 334 338 337 336 335 336 338 336
138 159 111 149 188 157 155 154 183 127 26 27 19 347 13 40 56 72 80 63 30 48 20 342 315 50 54 74 17 13 13 14 26 53 62 63 62 59 57 58 62 62 64 73 86 102 114 118 114 116 112 109 117 125 136 129 130 133 117 61 45 43 51 55 48 38 26 23 22 19 16 14 13 9 5 0 355 350 345 341 338 335 334 327 321 318 315 316 315 313 317 321 321 323 323 325 327
143 160 127 160 165 130 149 150 172 116 47 347 7 5 40 50 50 63 76 67 33 27 43 5 344 24 36 19 21 11 351 7 32 54 64 66 63 62 57 56 57 56 57 60 62 73 109 132 124 112 102 104 103 109 123 119 109 91 90 75 58 56 55 48 39 32 26 22 18 15 10 5 5 4 2 357 352 349 341 335 330 326 324 316 312 307 302 303 301 298 299 303 303 304 306 307 310
143 148 94 123 122 154 180 159 155 120 83 52 64 61 66 50 48 58 46 69 40 360 59 21 13 56 22 16 25 335 334 358 27 55 67 66 61 62 57 54 53 50 52 53 55 57 53 77 101 103 86 88 82 79 90 99 91 83 92 85 72 60 47 44 38 35 35 35 31 27 21 14 8 3 2 360 356 353 346 342 338 333 328 319 313 310 307 307 304 300 297 294 293 296 300 300 299
115 113 71 116 161 192 200 155 147 113 124 123 116 90 73 52 50 68 38 75 68 34 55 29 24 57 47 41 2 335 340 359 46 66 69 62 57 58 56 54 51 48 47 46 48 51 49 58 75 78 64 70 65 60 61 69 70 49 67 38 3 12 24 35 37 44 50 49 44 38 33 27 20 12 6 1 357 354 351 350 346 344 341 335 330 326 323 321 318 315 309 300 294 296 299 300 299
72 93 97 148 180 197 192 152 168 134 142 138 95 81 96 89 65 84 61 60 70 53 58 49 46 54 45 31 355 345 1 34 60 67 61 53 50 49 49 46 45 45 43 43 44 47 52 57 62 60 54 46 42 48 31 32 21 354 323 323 356 11 6 13 35 51 54 48 41 35 29 24 19 14 10 5 358 355 354 353 349 343 339 335 335 336 331 326 322 317 315 310 302 298 298 298 297
71 114 136 177 178 192 195 156 168 124 126 108 66 64 102 105 76 89 56 46 55 58 52 46 49 43 34 20 7 7 33 50 58 59 51 45 44 42 40 36 38 38 37 40 43 46 49 52 56 59 57 44 47 54 45 54 35 38 54 61 37 38 47 48 50 53 43 40 33 25 18 11 9 8 5 3 359 359 3 3 360 352 342 332 328 330 328 328 327 322 320 321 317 311 308 303 296
90 132 132 197 181 125 318 154 138 112 123 100 72 59 71 75 56 69 66 49 43 48 30 23 34 25 16 10 13 17 41 52 52 52 48 43 40 37 33 31 33 33 34 35 38 45 47 49 50 54 56 52 55 57 61 73 60 58 64 68 59 51 56 51 46 41 28 29 21 8 355 348 351 355 356 358 358 2 7 7 6 3 357 345 335 329 323 322 322 323 323 324 325 323 321 319 314
133 119 117 211 188 71 10 87 104 114 121 101 86 75 62 44 30 84 95 70 44 43 20 13 23 9 357 359 9 10 41 50 47 48 45 40 38 36 33 29 28 27 32 38 40 45 49 52 49 50 53 54 59 59 62 64 59 60 63 64 60 55 55 48 43 41 33 24 5 347 332 328 327 329 335 343 347 349 349 350 354 1 7 3 356 349 341 332 321 318 318 319 322 322 321 323 324
136 100 144 187 157 71 20 78 98 101 108 103 103 83 71 50 41 51 90 77 40 31 24 19 18 3 351 354 5 15 46 50 43 44 41 38 37 36 37 31 31 31 38 46 44 43 47 52 51 51 54 56 60 60 62 60 59 62 62 61 59 58 57 54 50 44 39 29 16 2 344 338 335 329 328 330 332 332 331 332 333 340 352 359 0 357 356 353 343 332 323 320 321 320 320 320 320
94 30 145 144 119 90 41 80 95 98 99 95 89 80 89 77 48 41 62 71 49 29 26 25 22 13 360 359 15 32 51 52 43 43 40 38 34 32 34 30 34 36 40 45 42 41 46 53 56 57 59 60 61 61 62 61 59 60 59 56 55 56 57 57 53 46 42 31 22 14 1 354 350 349 348 345 341 336 333 332 329 326 330 341 347 346 348 353 354 350 343 337 331 324 322 319 316
98 9 23 69 103 102 82 79 85 96 90 82 83 86 101 88 64 44 57 60 53 49 33 30 29 23 16 11 28 42 52 53 47 43 40 39 33 30 30 30 35 36 40 43 41 43 47 54 59 61 63 63 63 64 64 62 61 60 59 56 54 55 53 53 50 45 42 34 28 22 19 15 6 2 2 0 356 351 345 340 335 328 325 329 334 337 340 344 347 349 349 347 344 338 332 328 323
92 72 47 60 88 95 94 90 88 88 85 85 89 83 76 83 80 50 53 50 41 46 36 38 38 29 30 28 30 42 52 54 49 44 42 40 36 36 37 37 39 42 46 46 44 46 47 52 59 64 66 64 63 65 68 65 63 61 59 56 56 56 52 51 49 46 44 40 37 31 29 27 19 11 5 4 1 358 354 348 339 332 331 329 328 330 333 333 334 337 339 341 342 341 340 338 336
78 99 88 78 84 92 98 98 95 89 90 90 81 75 72 83 83 56 43 35 32 39 31 29 38 34 36 37 31 39 49 50 48 42 40 40 39 42 42 40 42 45 46 46 48 50 52 55 61 65 64 61 61 66 70 67 64 63 61 59 59 58 55 53 48 43 43 42 40 35 29 26 25 22 18 14 4 357 354 351 345 340 341 337 330 329 330 328 326 327 328 330 332 332 333 333 335
98 113 105 97 93 98 101 94 92 90 95 92 77 65 62 76 77 55 31 18 21 35 36 19 29 39 35 32 33 41 44 44 43 40 39 40 40 41 39 39 42 43 43 47 52 54 57 61 65 65 60 58 61 67 70 68 68 67 65 64 63 62 60 57 51 46 45 43 41 40 36 33 35 37 36 31 21 13 6 2 359 357 357 353 347 344 342 337 332 329 326 325 325 325 325 326 328
117 110 99 97 96 95 93 92 95 88 73 84 84 66 41 41 67 64 31 20 17 29 45 28 35 44 35 29 35 41 41 40 41 39 38 36 35 35 34 36 39 41 43 48 52 55 60 65 67 68 64 61 64 68 70 71 72 70 68 67 66 65 64 63 59 55 52 49 47 47 46 46 46 44 42 40 39 36 30 25 22 18 18 15 9 4 1 356 352 349 344 338 334 332 331 332 334
119 107 93 94 100 92 79 91 98 89 88 88 88 74 40 33 60 70 46 37 23 28 41 34 45 45 33 31 35 42 42 40 39 38 35 30 29 30 31 33 35 41 44 45 48 57 63 66 69 71 69 67 67 68 69 72 72 71 71 70 68 66 66 66 62 59 56 53 52 52 51 52 50 48 45 43 43 41 40 38 36 34 32 30 27 23 20 17 14 12 8 3 359 357 356 354 351
120 109 102 110 106 82 32 43 3 78 134 136 75 64 30 25 50 49 49 58 36 36 35 27 46 47 35 33 35 46 47 43 41 40 36 32 30 31 33 34 37 42 43 46 52 59 64 66 69 71 72 71 69 69 69 70 71 71 70 68 68 66 65 65 61 59 56 54 53 52 52 51 50 49 47 46 46 45 44 42 40 38 36 34 32 31 30 28 24 21 18 17 17 15 12 8 3
120 111 115 128 105 65 3 6 350 41 133 278 31 75 26 26 46 37 30 51 45 46 39 24 39 48 44 37 37 48 47 43 42 42 40 37 35 34 36 37 41 45 47 51 55 58 63 67 70 72 74 73 71 71 71 71 70 70 69 67 66 65 64 63 61 60 57 56 55 54 54 52 52 51 48 47 47 47 45 43 41 38 37 36 33 33 33 33 31 25 20 21 22 18 13 11 8
124 112 120 132 114 94 10 14 12 43 340 326 88 99 78 52 45 39 23 23 49 59 51 36 35 45 43 34 38 46 46 43 41 41 39 40 39 37 38 38 41 47 50 54 55 58 63 67 70 72 75 75 73 71 71 72 71 70 69 68 67 66 65 64 62 61 59 58 58 57 56 55 56 55 53 51 49 49 46 44 41 37 37 37 35 34 34 34 33 28 24 22 19 15 10 9 8
137 125 131 137 119 124 35 22 16 80 358 19 87 99 100 86 64 60 35 9 47 68 63 49 44 45 40 32 32 39 44 42 40 37 35 36 37 38 39 39 41 45 49 53 56 61 65 67 70 73 74 74 73 70 69 70 71 71 70 68 68 67 66 64 62 60 59 59 59 58 56 56 57 57 57 56 53 52 49 47 43 39 38 37 36 35 33 32 30 30 28 25 19 12 8 5 6
199 142 136 138 126 144 103 25 6 62 31 17 84 118 112 97 93 78 40 4 25 63 63 52 51 49 47 39 31 33 33 35 34 30 29 31 33 35 37 39 41 43 47 51 55 59 63 65 69 72 72 74 73 71 69 67 68 70 69 68 67 66 65 62 60 59 59 58 58 58 57 57 57 57 58 57 56 53 51 50 46 44 42 40 39 36 34 32 30 29 27 28 23 14 10 6 4
182 128 120 110 110 130 129 51 16 57 85 65 84 104 104 109 108 78 47 26 26 49 55 50 51 51 54 50 38 34 24 30 28 21 25 28 29 33 36 39 41 44 48 52 56 59 60 62 65 68 70 73 74 74 72 68 67 67 67 67 66 65 63 61 60 59 59 58 58 58 58 58 56 56 57 56 56 53 52 51 48 47 44 42 41 38 36 34 33 32 26 27 26 19 15 9 4
153 140 129 107 89 83 85 88 56 75 84 81 85 95 101 103 96 84 71 53 47 45 46 46 42 47 52 46 40 34 27 33 23 19 28 32 30 34 38 42 45 47 51 55 60 62 62 63 64 66 68 70 73 74 75 72 69 67 65 65 65 64 61 60 60 59 59 59 58 58 59 59 57 56 56 56 55 53 52 50 49 48 45 44 42 39 37 33 33 32 29 27 25 24 19 13 7
122 120 120 118 98 80 88 101 106 90 80 64 76 95 98 85 70 75 68 50 56 45 43 42 32 43 47 43 37 25 31 30 19 23 33 37 37 39 44 47 50 53 55 57 60 62 63 63 64 65 66 68 71 72 72 70 67 64 62 62 61 60 60 61 61 60 60 59 59 60 60 59 58 57 56 55 55 53 51 49 48 47 45 44 42 39 36 33 32 30 30 27 24 24 21 17 12
98 97 96 100 97 91 103 117 133 94 80 56 65 86 83 71 55 42 40 42 44 37 41 34 25 39 37 42 31 3 20 26 22 29 35 40 43 46 50 51 53 55 56 57 58 59 60 61 62 63 63 65 67 67 66 64 62 60 59 60 59 58 61 62 62 61 61 61 61 61 61 59 59 57 56 55 54 52 50 48 47 46 45 44 43 41 37 35 34 30 29 28 26 23 19 18 14
95 100 98 87 92 94 87 103 113 80 96 90 80 84 71 62 57 43 49 50 35 26 38 28 22 33 20 23 14 341 341 17 26 27 28 34 40 45 49 50 51 52 53 55 57 58 59 60 61 61 61 64 65 65 67 67 65 65 65 66 65 64 65 65 64 63 63 64 64 63 62 60 59 58 57 55 53 52 50 48 46 45 43 43 42 40 38 36 34 31 28 25 25 24 20 18 17
102 105 102 92 102 107 77 54 46 71 101 115 107 87 71 54 53 45 52 61 52 40 44 29 12 14 4 344 330 329 334 4 18 13 14 24 32 40 46 48 51 52 53 56 57 59 60 60 61 61 62 64 65 66 68 70 72 73 75 74 73 72 70 69 69 68 67 65 64 63 61 60 58 57 56 55 53 51 49 48 46 44 42 40 39 37 36 34 31 30 28 23 20 20 20 19 21
109 114 108 114 134 120 86 45 54 61 90 125 122 93 78 64 50 31 36 64 83 57 46 30 8 329 304 312 315 338 349 355 3 355 0 15 26 34 40 44 48 52 53 54 55 57 58 60 61 62 63 65 67 69 71 76 80 81 81 80 79 77 75 74 72 69 67 64 62 61 58 57 56 54 53 52 50 48 47 45 43 42 40 38 36 34 33 31 29 27 25 24 19 14 12 13 19
78 105 120 132 132 105 105 107 86 72 82 121 117 88 74 36 44 345 338 22 107 62 34 347 331 302 311 329 330 336 334 327 328 329 342 2 19 29 37 43 46 49 51 50 52 55 58 60 62 63 65 65 66 68 70 74 79 79 80 80 77 73 68 65 62 58 58 57 56 55 54 53 52 51 49 47 45 44 42 41 39 38 36 35 32 31 29 28 27 25 22 21 19 13 5 3 10
74 50 126 130 123 115 120 123 107 90 97 179 35 85 95 330 300 240 241 255 245 57 356 295 289 300 319 323 307 305 301 285 280 296 326 353 13 25 35 40 43 47 49 50 52 56 60 61 62 64 65 65 64 64 65 65 66 65 64 62 58 55 52 49 46 42 43 47 48 49 50 49 48 46 44 42 40 38 36 34 33 32 30 29 27 25 24 22 21 21 19 16 15 11 2 357 359
98 329 128 127 125 126 130 126 112 108 127 135 8 96 143 279 257 225 203 246 259 248 269 265 270 280 277 266 261 263 270 276 281 291 316 345 7 19 29 33 36 43 45 48 54 57 60 60 60 61 61 62 61 59 60 59 60 58 57 56 51 48 44 41 39 36 35 37 39 42 42 41 39 37 35 34 32 30 28 26 25 24 22 21 20 17 16 15 13 12 12 10 8 6 1 353 348
93 61 110 122 123 124 127 113 103 111 119 108 33 25 103 201 253 204 170 242 269 262 255 252 250 253 249 250 249 249 249 248 260 274 288 316 356 12 17 20 23 31 35 41 49 51 53 55 56 58 59 59 57 55 53 52 54 54 53 53 48 44 37 30 29 28 27 27 28 30 30 31 30 27 24 22 20 18 15 14 13 12 12 11 10 9 7 5 3 2 2 1 0 359 357 349 340
86 95 96 99 100 101 93 90 105 108 103 88 3 13 79 234 298 58 110 249 255 246 236 233 237 241 243 248 247 246 244 238 238 246 262 284 320 353 352 352 357 2 12 23 34 39 42 48 52 54 56 57 54 51 49 48 48 46 44 41 38 34 25 18 14 12 12 11 11 13 13 14 15 15 13 9 7 5 3 2 0 360 360 359 358 357 356 355 354 353 352 351 350 348 348 343 334
109 100 88 73 71 67 60 78 105 80 74 84 339 1 95 217 262 168 162 250 241 230 227 231 234 237 239 243 243 242 244 244 240 241 250 261 265 285 304 306 311 316 328 348 0 11 24 35 42 43 45 46 46 42 40 39 36 33 30 24 18 11 3 359 355 354 355 353 352 353 353 354 355 355 356 355 353 350 349 348 347 347 347 347 346 346 346 346 346 345 344 343 340 338 338 335 329
112 95 87 80 58 47 52 41 62 68 39 248 280 313 117 216 256 200 195 227 208 195 209 229 232 237 239 237 240 238 236 239 240 244 248 249 255 261 269 279 285 290 293 297 300 308 326 343 4 17 19 21 24 23 20 20 15 10 6 1 354 347 345 342 339 340 341 339 337 337 337 336 337 337 337 338 339 338 336 336 336 335 336 336 336 336 337 337 337 336 335 334 333 331 329 326 322
87 91 107 100 54 18 39 4 28 88 269 266 307 320 321 192 260 220 216 234 202 183 193 205 217 230 237 237 240 238 234 241 248 254 254 253 257 260 263 273 281 285 283 283 282 281 287 293 296 297 293 304 316 319 325 328 332 332 330 330 330 330 330 329 328 328 329 329 328 326 325 324 324 324 325 325 328 328 326 327 327 327 327 328 329 329 329 330 330 329 328 327 326 324 323 320 315
68 87 81 88 71 23 53 5 359 120 241 277 3 353 339 233 254 226 219 228 219 205 200 198 203 213 227 232 235 237 237 243 246 249 253 254 257 261 268 276 282 287 287 284 281 277 278 280 280 281 278 277 284 287 292 297 301 307 311 313 316 317 318 319 319 319 320 321 320 318 316 315 314 314 315 315 319 321 320 321 322 322 323 323 324 324 325 326 326 324 323 322 320 320 319 316 311
57 96 86 95 102 82 109 292 336 278 249 312 353 350 313 288 284 230 224 230 224 220 216 209 204 209 221 227 233 245 246 242 240 243 249 251 255 261 269 275 279 283 285 282 279 277 275 273 274 277 278 277 279 283 288 290 294 298 301 303 306 308 310 312 313 314 316 315 315 314 312 312 312 312 313 314 317 319 318 319 319 319 320 320 320 321 321 322 322 321 319 317 317 317 316 312 309
27 153 115 116 131 133 167 192 175 217 265 337 340 327 207 263 274 227 235 254 257 243 237 252 252 245 254 271 268 254 251 247 240 243 248 250 254 260 265 269 272 275 279 278 275 274 274 275 276 277 280 283 282 283 287 289 293 296 297 298 300 303 306 308 308 309 310 310 310 310 310 312 312 312 313 314 316 317 317 316 316 316 317 317 317 318 318 319 320 319 317 315 314 314 313 309 306
85 85 71 68 162 136 133 161 165 167 98 347 296 246 215 229 265 279 285 284 283 261 248 273 274 268 277 280 260 243 246 247 239 241 247 249 252 256 259 262 266 270 273 276 276 277 279 281 283 282 284 288 288 288 290 291 294 294 295 297 298 300 301 302 303 303 304 305 306 306 307 310 312 311 312 312 313 314 313 312 312 312 313 313 314 314 315 316 316 316 315 313 312 312 310 306 304
88 69 70 101 136 115 111 118 73 84 116 171 298 271 291 306 295 322 353 301 279 285 250 246 251 259 260 251 246 239 239 239 236 236 241 248 251 253 255 258 262 267 271 276 281 284 285 286 287 287 288 290 292 293 293 293 292 292 294 295 295 296 296 296 298 299 300 302 303 304 306 309 310 311 311 311 311 311 311 311 310 309 310 310 310 310 311 312 313 312 311 310 309 309 307 303 302
96 116 160 155 95 95 106 101 24 40 122 274 320 271 295 325 292 328 351 264 264 257 236 239 246 248 244 241 239 236 236 239 246 248 248 251 253 253 254 256 259 265 269 275 280 284 286 286 286 287 289 292 296 298 297 296 295 294 294 295 294 294 294 294 295 296 298 300 300 302 304 306 308 310 310 309 309 309 309 309 309 309 309 309 308 308 309 310 310 309 308 306 305 305 302 299 298
80 119 145 120 103 78 49 87 106 75 87 289 304 282 258 220 223 276 243 223 233 232 226 232 236 235 234 240 241 239 242 245 249 251 250 249 249 250 252 255 260 264 268 272 276 279 280 281 283 284 286 291 295 296 296 297 297 296 297 298 298 298 297 297 296 297 298 298 299 301 303 304 306 308 308 307 308 307 306 307 308 308 309 308 307 307 307 308 307 306 304 303 302 301 298 296 296
25 55 24 21 113 132 80 85 137 126 123 254 320 337 275 229 215 218 222 223 221 218 220 226 231 232 231 234 239 239 237 238 241 241 243 245 247 249 252 255 260 264 266 270 273 273 274 276 278 280 282 286 288 289 290 292 294 296 298 299 300 301 301 300 299 298 297 297 299 301 302 303 304 305 305 305 306 306 305 306 306 307 307 306 306 305 305 305 304 302 301 300 300 299 296 294 294
355 27 19 8 37 76 99 67 63 98 125 174 24 356 277 252 212 210 238 251 239 221 224 233 237 236 235 237 238 238 235 233 238 239 241 247 249 251 253 256 259 262 263 265 268 270 272 274 275 276 279 282 285 287 287 289 292 294 295 296 299 301 301 301 299 298 297 297 299 300 301 302 302 301 303 303 303 304 305 305 305 305 305 305 304 304 303 303 300 299 298 297 297 296 294 292 293
128 60 68 108 62 101 91 39 347 77 105 160 130 330 274 260 199 217 246 256 248 235 227 240 250 241 239 240 234 234 236 235 238 240 243 248 251 253 256 258 260 261 262 264 266 268 270 272 274 276 278 280 284 287 288 289 291 292 293 295 298 300 301 301 299 297 296 296 297 299 301 302 300 301 302 302 302 303 304 304 303 303 302 302 302 302 301 299 297 296 296 295 294 294 292 292 291